Temp
64 64 64 64 64 64 64 64 64 65 65 64 64 64 64 64 63 57 55 66 65 73 69 63 63 62 62 59 59 57 47 43 47 47 54 59 59 62 64 63 62 63 64 61 57
64 64 63 63 63 63 63 63 63 64 64 64 64 64 64 63 57 55 66 72 73 72 63 61 57 60 56 56 56 52 45 47 53 53 55 59 59 61 61 60 61 62 59 56 56
63 63 62 63 62 62 63 62 62 63 63 63 63 63 63 60 55 59 72 73 74 71 65 62 61 60 54 55 54 50 47 51 55 56 58 58 58 61 59 57 60 61 61 55 54
62 62 62 62 62 62 62 62 61 61 62 63 63 63 63 56 48 61 72 73 73 66 64 60 59 54 50 50 54 49 52 53 56 56 56 55 59 58 57 61 64 63 62 55 54
61 61 61 61 61 61 61 61 61 60 62 62 63 63 57 51 55 65 71 72 65 64 62 58 55 53 50 50 51 49 52 54 56 55 54 55 55 57 57 60 61 60 58 56 55
61 61 60 60 60 61 61 61 61 61 62 62 63 62 53 48 61 64 63 64 63 62 59 60 56 57 52 51 51 52 52 53 54 55 55 54 53 54 58 60 57 57 56 55 54
60 60 59 60 60 60 60 61 61 61 62 62 63 60 52 55 61 62 65 61 62 62 58 59 60 57 55 50 54 52 49 51 52 52 53 53 50 51 56 56 50 48 47 47 45
59 59 59 59 59 59 60 61 60 61 61 63 63 55 51 61 59 62 62 60 61 62 61 61 61 58 55 55 52 48 46 44 50 51 51 53 50 52 51 48 43 42 42 42 42
59 58 58 58 58 58 59 61 60 61 62 63 54 52 51 63 58 61 61 60 60 60 60 64 59 52 52 46 43 43 40 41 47 51 51 51 50 43 45 43 39 38 38 39 39
58 58 57 58 58 58 59 60 61 60 60 61 61 48 54 54 58 60 59 61 57 56 56 54 48 44 42 43 37 39 39 39 42 48 49 47 48 38 40 38 36 36 36 36 36
57 57 57 57 57 58 55 52 51 49 50 50 50 50 54 57 60 56 60 58 56 53 45 47 43 39 42 44 44 43 40 41 44 49 48 47 45 36 37 35 34 33 32 32 33
57 57 57 57 57 57 52 49 49 52 45 51 51 53 56 57 52 54 60 52 50 44 45 43 39 45 47 45 44 42 39 39 44 46 46 44 32 33 34 33 32 31 30 29 30
56 56 56 57 56 53 50 51 54 52 44 48 52 51 54 57 50 52 57 50 46 42 42 40 45 46 46 42 41 40 38 38 42 43 44 42 34 31 31 32 32 31 30 29 28
56 56 56 56 51 51 50 55 55 54 38 43 47 51 54 54 47 55 55 52 45 43 41 42 45 45 42 42 43 38 43 43 41 39 36 42 35 31 29 27 27 28 27 26 27
56 56 57 56 48 50 52 54 53 52 26 45 47 58 53 50 50 50 54 51 44 43 43 41 42 40 40 42 44 42 44 41 41 37 36 37 36 30 31 26 24 25 26 26 26
55 56 56 52 48 51 53 53 52 39 25 40 46 45 46 47 47 49 49 50 48 44 42 42 45 45 44 44 44 45 42 39 36 35 29 34 37 26 22 21 23 25 25 25 25
55 55 53 54 49 52 52 49 37 30 42 37 39 43 41 39 42 43 38 34 34 34 33 38 40 43 45 41 42 42 37 30 29 26 29 33 33 21 22 22 22 22 23 24 25
55 55 53 55 50 52 50 43 30 34 33 40 40 40 36 38 38 38 35 31 35 33 31 30 31 39 44 41 39 38 37 31 25 25 30 34 29 19 23 25 26 25 24 24 23
55 48 47 50 51 51 46 33 30 35 37 36 38 34 32 36 37 33 35 35 37 33 32 30 31 39 41 42 42 37 34 39 33 30 27 29 18 22 25 22 21 21 21 20 20
48 48 47 50 49 48 40 35 34 38 38 38 33 33 29 31 32 31 31 36 37 38 36 31 28 34 37 41 40 38 38 32 32 25 22 26 19 18 17 17 19 18 16 18 19
48 45 51 51 50 43 32 34 37 40 39 36 34 31 31 30 31 28 30 33 35 35 34 30 29 31 35 28 29 31 28 29 30 27 24 22 20 19 15 16 15 16 18 17 17
44 40 49 51 40 35 31 35 40 34 36 35 34 33 30 29 27 28 27 30 35 34 28 30 24 22 24 30 32 28 25 27 24 20 22 22 17 16 16 16 17 14 16 16 17
37 38 47 47 33 30 33 32 33 32 30 31 29 31 31 26 24 29 29 33 33 32 26 30 21 12 23 27 31 20 19 21 23 22 15 14 14 14 13 13 14 12 13 13 15
36 36 37 36 32 31 29 30 29 34 31 31 30 30 27 24 27 24 26 31 32 32 38 35 21 16 13 18 21 17 16 17 13 5 8 11 1 2 4 7 10 10 10 9 9
30 26 29 27 29 29 29 30 29 28 31 32 29 28 26 23 23 22 24 26 30 32 28 25 11 18 22 25 22 10 13 13 11 -1 6 -1 -3 -6 -2 -0 3 5 7 7 6
30 30 28 26 28 27 28 26 28 27 28 27 26 27 26 23 24 21 24 22 20 25 23 25 12 19 12 19 17 6 7 11 11 3 -4 -8 -5 -2 1 0 4 2 4 3 4
30 33 32 29 26 26 23 25 27 29 29 30 28 25 24 26 27 27 27 27 25 22 21 22 16 7 -0 17 14 5 2 9 7 4 4 4 -1 2 2 5 2 0 2 2 2
MSLP
1013.57 1013.26 1013.09 1013.06 1012.87 1012.82 1012.63 1012.58 1012.56 1012.58 1012.58 1012.64 1012.75 1012.98 1012.90 1012.89 1012.96 1013.32 1012.76 1011.09 1010.95 1011.21 1011.73 1012.65 1012.94 1013.24 1013.39 1013.96 1014.21 1014.85 1015.72 1015.88 1015.12 1014.54 1013.26 1012.69 1012.49 1012.20 1011.99 1012.14 1012.48 1012.71 1013.07 1013.77 1014.34
1013.40 1013.05 1013.01 1012.83 1012.60 1012.46 1012.36 1012.41 1012.46 1012.39 1012.34 1012.35 1012.67 1012.79 1012.72 1012.71 1012.84 1012.35 1010.45 1010.55 1010.53 1010.93 1011.76 1012.54 1013.23 1013.34 1013.76 1014.07 1014.46 1014.97 1015.70 1015.10 1014.29 1013.73 1013.13 1012.65 1012.44 1012.20 1012.22 1012.31 1012.54 1012.84 1013.36 1014.09 1014.64
1013.37 1013.20 1013.02 1012.79 1012.54 1012.41 1012.28 1012.20 1012.28 1012.21 1012.22 1012.34 1012.46 1012.54 1012.48 1012.64 1012.46 1010.44 1009.53 1009.98 1010.18 1010.61 1011.40 1012.18 1012.87 1013.11 1013.73 1014.09 1014.49 1014.96 1015.09 1014.55 1013.78 1013.38 1013.10 1012.78 1012.55 1012.31 1012.23 1012.43 1012.38 1012.50 1013.09 1014.14 1014.77
1013.68 1013.54 1013.25 1012.96 1012.65 1012.37 1012.18 1012.07 1012.08 1012.16 1012.12 1012.09 1012.19 1012.26 1012.37 1012.57 1011.68 1009.59 1009.21 1009.58 1010.17 1010.76 1011.53 1012.37 1012.93 1013.31 1013.80 1014.17 1014.29 1014.68 1014.45 1014.29 1013.75 1013.30 1013.16 1012.95 1012.74 1012.64 1012.38 1012.18 1012.04 1012.43 1013.09 1014.04 1014.55
1013.96 1013.71 1013.28 1012.97 1012.54 1012.15 1011.89 1011.73 1011.75 1011.89 1011.79 1011.85 1011.97 1012.17 1012.45 1012.25 1010.83 1009.70 1009.38 1009.69 1010.51 1011.01 1011.49 1012.16 1012.78 1013.24 1013.61 1013.93 1014.29 1014.48 1014.20 1013.99 1013.57 1013.45 1013.38 1013.17 1013.14 1013.00 1012.46 1012.54 1012.81 1013.13 1013.70 1014.41 1014.94
1014.02 1013.79 1013.33 1012.84 1012.43 1012.02 1011.67 1011.51 1011.48 1011.53 1011.53 1011.58 1011.79 1012.10 1012.38 1011.72 1010.07 1009.90 1009.98 1010.46 1010.76 1011.13 1011.62 1011.78 1012.27 1012.56 1013.32 1013.65 1014.04 1013.99 1013.99 1013.76 1013.34 1013.08 1013.14 1013.24 1013.48 1013.53 1013.29 1013.40 1014.13 1014.78 1015.52 1016.14 1016.69
1014.02 1013.63 1013.19 1012.68 1012.24 1011.76 1011.35 1011.17 1011.14 1011.28 1011.33 1011.44 1011.67 1011.98 1011.93 1010.74 1010.10 1010.23 1010.37 1010.59 1010.89 1011.02 1011.60 1011.62 1011.78 1012.27 1012.87 1013.51 1013.57 1013.80 1014.00 1013.54 1013.19 1013.11 1013.04 1013.22 1013.99 1014.36 1014.54 1014.82 1016.03 1017.04 1017.76 1018.18 1018.87
1013.92 1013.42 1013.06 1012.58 1012.13 1011.66 1011.17 1010.80 1010.88 1011.03 1011.22 1011.42 1011.64 1011.95 1011.27 1010.28 1010.27 1010.50 1010.56 1010.88 1011.08 1011.06 1011.18 1011.44 1011.58 1012.24 1012.77 1013.35 1013.74 1014.02 1014.20 1013.96 1013.33 1013.08 1013.18 1013.48 1014.42 1015.62 1016.17 1016.32 1018.09 1019.11 1019.86 1020.21 1020.61
1013.66 1013.29 1012.93 1012.48 1011.96 1011.46 1011.05 1010.66 1010.76 1010.99 1011.27 1011.52 1011.83 1011.79 1010.92 1010.35 1010.49 1010.37 1010.47 1010.81 1011.17 1011.31 1011.49 1011.69 1011.99 1012.97 1013.35 1013.90 1014.57 1014.77 1014.68 1014.39 1013.62 1013.28 1013.27 1013.81 1015.13 1017.33 1018.02 1018.38 1019.96 1021.07 1021.70 1022.05 1022.09
1013.47 1013.05 1012.67 1012.29 1011.96 1011.52 1011.10 1010.82 1010.94 1011.17 1011.61 1011.69 1011.63 1012.02 1010.70 1010.20 1010.18 1010.37 1010.56 1010.83 1011.34 1011.76 1012.11 1012.40 1013.19 1013.69 1014.20 1014.49 1014.70 1014.80 1014.85 1014.58 1014.17 1013.88 1013.75 1014.54 1015.93 1018.47 1019.73 1020.02 1021.77 1022.72 1023.33 1023.68 1023.82
1013.23 1012.81 1012.38 1012.01 1011.80 1011.56 1011.38 1011.39 1011.68 1011.80 1011.52 1010.85 1010.80 1010.70 1010.21 1010.17 1010.17 1010.51 1010.53 1010.90 1011.45 1012.21 1012.85 1013.25 1013.69 1013.63 1013.99 1014.10 1014.28 1014.50 1014.69 1014.61 1014.21 1013.85 1014.38 1015.20 1017.08 1019.87 1021.45 1022.06 1023.35 1024.35 1024.87 1025.16 1025.30
1012.90 1012.49 1012.10 1011.70 1011.43 1011.22 1011.21 1011.02 1010.51 1010.50 1010.64 1010.55 1010.54 1010.43 1010.17 1009.99 1010.39 1010.61 1010.58 1011.05 1011.67 1012.65 1013.22 1013.92 1013.57 1013.42 1013.61 1014.13 1014.49 1014.72 1014.86 1014.73 1014.16 1014.03 1014.63 1015.86 1018.95 1021.21 1022.68 1024.26 1025.48 1026.24 1026.60 1026.79 1026.46
1012.54 1012.10 1011.66 1011.30 1011.10 1011.01 1010.73 1010.34 1010.21 1010.24 1010.63 1010.46 1010.24 1010.10 1009.90 1010.08 1010.32 1010.61 1010.76 1011.14 1011.96 1012.89 1013.39 1013.70 1013.21 1013.09 1013.55 1014.14 1014.47 1014.56 1014.76 1014.65 1014.50 1014.53 1014.85 1016.09 1018.97 1021.42 1024.15 1025.46 1026.54 1027.43 1028.12 1028.20 1028.13
1012.22 1011.70 1011.22 1010.84 1011.17 1010.50 1010.47 1010.22 1010.18 1010.36 1010.80 1010.53 1010.06 1009.59 1009.72 1009.87 1010.65 1010.81 1010.86 1011.30 1012.18 1012.83 1013.66 1013.60 1013.03 1013.22 1013.49 1013.77 1013.93 1014.29 1013.57 1013.89 1014.52 1015.04 1015.55 1016.11 1018.62 1021.43 1024.13 1026.02 1027.42 1028.44 1028.95 1029.36 1029.28
1011.78 1011.32 1010.72 1010.69 1010.66 1010.57 1010.50 1010.24 1010.41 1010.56 1010.80 1010.42 1009.72 1009.24 1009.61 1010.37 1011.03 1011.27 1011.21 1011.35 1012.32 1012.97 1013.57 1013.16 1012.91 1013.02 1013.17 1013.01 1013.36 1013.42 1013.52 1014.13 1014.66 1015.26 1015.87 1016.64 1018.98 1021.63 1024.19 1026.20 1028.34 1029.58 1030.20 1030.53 1030.58
1011.31 1010.96 1010.67 1010.72 1010.82 1010.57 1010.35 1010.40 1010.67 1011.42 1010.80 1010.55 1010.03 1009.91 1010.40 1011.12 1011.67 1011.93 1012.07 1012.27 1012.89 1013.37 1013.62 1013.40 1012.98 1012.82 1012.67 1012.77 1013.05 1013.32 1013.90 1014.66 1015.40 1015.87 1016.52 1016.66 1018.82 1022.87 1025.86 1028.46 1029.78 1030.77 1031.22 1031.40 1031.35
1010.97 1010.59 1010.49 1010.47 1010.71 1010.51 1010.51 1010.77 1011.53 1011.62 1011.36 1011.71 1011.45 1011.30 1011.88 1012.66 1013.01 1013.28 1014.49 1015.23 1015.31 1015.09 1014.83 1014.19 1013.55 1013.08 1012.91 1013.12 1013.37 1013.58 1014.21 1015.36 1016.01 1016.58 1016.51 1017.43 1020.29 1024.77 1027.81 1029.86 1031.17 1031.88 1032.27 1032.39 1032.38
1010.57 1010.36 1010.37 1010.36 1010.43 1010.41 1010.80 1011.40 1012.06 1012.51 1012.62 1012.62 1012.54 1012.66 1013.36 1014.08 1014.61 1015.07 1015.89 1016.87 1016.92 1016.74 1016.33 1015.84 1015.04 1014.29 1013.90 1013.74 1013.78 1014.14 1014.56 1015.27 1015.59 1016.49 1017.35 1018.78 1022.18 1026.41 1029.27 1030.94 1032.03 1032.78 1033.22 1033.34 1033.25
1010.22 1010.45 1010.68 1010.57 1010.34 1010.51 1011.14 1012.14 1013.28 1013.73 1013.89 1013.73 1013.59 1013.95 1014.87 1015.08 1015.35 1016.24 1017.30 1017.82 1018.15 1017.95 1017.69 1017.58 1016.53 1015.60 1015.01 1014.76 1014.74 1015.08 1015.26 1015.26 1015.85 1016.90 1018.41 1020.09 1024.88 1027.96 1030.00 1031.68 1032.85 1033.39 1033.93 1034.16 1034.34
1010.40 1010.65 1010.96 1010.53 1010.41 1010.77 1011.85 1013.62 1014.64 1014.97 1014.89 1014.62 1014.79 1015.37 1015.90 1016.29 1016.49 1016.99 1018.29 1018.87 1018.86 1018.80 1018.57 1018.91 1018.39 1017.39 1016.58 1015.88 1015.92 1016.12 1016.77 1016.85 1017.49 1018.60 1019.81 1021.51 1024.91 1028.21 1030.87 1032.56 1033.73 1034.48 1035.04 1035.24 1035.32
1010.65 1010.88 1010.97 1010.39 1010.50 1011.60 1013.50 1014.82 1015.58 1015.90 1015.79 1015.77 1015.95 1016.49 1017.06 1017.38 1017.63 1018.38 1019.22 1020.00 1019.88 1019.80 1019.66 1019.98 1019.99 1019.14 1018.22 1019.50 1019.38 1018.85 1019.21 1019.66 1019.87 1020.85 1022.00 1024.28 1027.44 1030.68 1032.71 1034.15 1035.05 1035.65 1036.04 1036.33 1036.33
1011.05 1011.47 1011.05 1010.51 1011.98 1014.02 1015.16 1015.89 1016.37 1016.96 1016.88 1016.87 1017.18 1017.69 1018.25 1018.72 1019.10 1019.51 1020.14 1020.67 1020.78 1020.77 1020.94 1021.29 1021.69 1021.75 1021.95 1022.07 1021.48 1021.88 1022.68 1022.85 1023.11 1024.02 1025.22 1027.37 1030.19 1033.33 1034.67 1035.74 1036.34 1036.88 1037.20 1037.38 1037.36
1011.98 1012.43 1011.31 1011.23 1013.71 1015.65 1016.59 1017.28 1017.95 1018.03 1018.45 1018.41 1018.94 1019.12 1019.35 1020.02 1020.51 1020.66 1021.12 1021.81 1021.59 1021.64 1021.85 1022.05 1022.75 1023.48 1023.56 1023.73 1023.21 1024.51 1025.63 1025.79 1026.23 1027.01 1028.57 1030.93 1033.01 1035.29 1036.61 1037.31 1037.75 1038.05 1038.26 1038.31 1038.12
1012.97 1013.98 1013.93 1014.13 1015.66 1016.15 1017.26 1018.26 1018.84 1019.15 1019.52 1019.73 1020.14 1020.06 1020.35 1021.08 1021.22 1021.78 1022.17 1022.53 1022.51 1022.55 1022.54 1022.63 1023.64 1024.21 1024.69 1024.88 1025.59 1027.07 1028.02 1028.64 1029.28 1031.13 1031.88 1033.24 1035.51 1037.53 1038.65 1039.10 1039.16 1039.22 1039.26 1039.21 1039.03
1014.66 1016.61 1016.93 1017.28 1017.60 1017.55 1017.90 1018.93 1019.51 1019.94 1020.17 1020.41 1020.90 1021.09 1021.33 1021.89 1022.24 1022.73 1023.04 1023.24 1023.32 1023.41 1023.58 1024.03 1025.26 1025.57 1026.00 1026.28 1027.26 1028.96 1030.19 1031.14 1032.13 1033.37 1034.87 1036.51 1038.18 1039.42 1040.25 1040.52 1040.33 1040.18 1040.14 1040.00 1039.79
1016.42 1017.23 1017.82 1018.45 1018.65 1018.77 1019.12 1020.09 1020.26 1020.79 1020.95 1021.21 1021.38 1021.80 1021.96 1022.46 1022.93 1023.32 1023.58 1023.86 1024.18 1024.35 1024.70 1025.21 1026.15 1026.97 1027.68 1028.31 1029.13 1031.22 1032.64 1033.59 1034.62 1035.89 1037.01 1038.49 1039.95 1040.92 1041.14 1041.20 1041.04 1041.00 1040.98 1040.89 1040.57
1017.60 1017.56 1017.65 1019.43 1019.45 1019.54 1020.55 1020.72 1021.08 1021.14 1021.94 1021.86 1022.09 1022.41 1022.79 1023.18 1023.43 1023.75 1024.09 1024.50 1024.93 1025.36 1025.78 1026.38 1027.17 1028.41 1029.40 1030.12 1031.46 1033.90 1035.30 1035.98 1037.05 1038.24 1039.44 1040.62 1041.75 1042.05 1042.06 1041.89 1041.67 1041.47 1041.76 1041.58 1041.00
Wind_Speed
13 13 12 10 9 8 8 9 10 9 8 8 7 7 6 4 2 2 7 10 7 11 11 7 3 3 3 3 3 3 3 2 4 5 3 1 1 1 1 3 2 4 2 1 6
15 15 15 13 12 10 8 8 9 8 7 7 6 6 5 3 3 8 11 9 9 18 8 9 6 5 3 3 2 4 3 7 4 4 2 2 1 2 2 1 2 2 2 4 8
17 16 15 14 13 11 8 8 8 8 7 6 5 5 4 3 2 8 3 13 14 11 8 4 6 4 4 3 3 4 5 4 4 5 2 2 2 2 2 3 7 6 4 6 7
17 16 15 14 12 10 8 7 7 8 6 5 4 4 4 2 4 2 8 16 17 9 7 7 4 4 5 5 3 2 5 4 4 0 2 2 2 5 6 6 1 6 3 7 11
16 16 15 14 13 11 8 6 6 7 6 4 4 5 3 1 8 5 8 12 8 7 8 7 6 5 6 4 5 4 4 4 6 7 5 2 5 6 7 8 7 2 2 4 6
16 16 15 15 14 11 8 5 5 6 6 5 6 6 2 3 1 3 9 7 5 5 5 6 9 5 5 3 4 5 3 5 6 5 3 4 1 2 3 7 12 11 11 10 9
17 17 17 16 15 14 10 5 5 6 7 7 8 3 2 10 2 5 5 2 5 4 5 3 7 5 5 4 1 1 4 6 2 0 4 6 1 3 8 13 19 20 20 20 23
18 17 18 17 16 15 13 4 4 5 6 7 8 2 6 2 3 5 3 4 2 1 4 6 5 5 3 4 5 3 4 3 2 1 3 4 2 11 13 17 19 21 20 20 22
19 18 18 18 17 16 14 2 5 6 6 7 3 3 7 4 3 4 3 7 5 2 5 4 5 3 4 5 4 5 3 3 6 2 2 3 2 10 15 18 19 19 20 20 21
19 19 18 17 16 14 13 3 8 9 4 1 1 2 3 2 3 5 2 6 4 4 4 6 5 4 3 4 5 5 3 3 4 2 4 3 5 14 18 22 19 19 20 21 21
20 19 18 17 15 12 5 4 4 3 1 6 4 2 1 2 3 1 3 5 4 6 4 2 3 8 9 7 3 6 3 3 3 3 2 6 1 14 14 21 20 20 21 21 22
20 19 19 17 15 13 4 3 3 2 2 4 2 4 3 2 3 1 4 5 4 5 5 5 8 5 5 4 4 2 1 6 5 2 6 4 8 13 17 19 19 19 20 21 22
20 19 18 16 13 1 3 3 2 3 3 2 4 3 4 5 2 7 5 4 4 5 5 6 3 5 6 4 6 4 6 5 8 1 2 4 4 5 12 17 17 19 18 20 21
20 18 16 12 1 3 2 2 3 2 5 2 3 2 2 3 3 1 1 4 2 7 7 5 2 4 4 5 8 3 9 6 4 3 4 2 3 4 10 14 18 18 19 19 21
20 17 14 4 1 3 1 2 4 4 2 1 2 2 2 5 6 5 2 3 6 5 5 4 4 3 3 6 8 6 4 6 4 4 1 2 2 5 5 10 16 17 18 18 19
19 15 6 3 0 1 1 3 3 6 6 2 2 1 4 5 3 2 5 9 2 3 2 5 2 2 4 2 4 5 5 6 4 3 3 8 7 4 4 6 11 13 15 17 18
18 13 3 1 2 4 1 3 5 4 3 3 3 3 6 5 5 5 5 8 4 2 4 5 1 1 1 3 1 3 5 2 2 0 5 1 2 8 8 11 10 12 14 16 17
14 6 2 2 4 2 2 4 4 2 2 2 3 3 5 5 4 4 4 4 6 4 3 2 1 5 8 2 1 4 6 5 5 4 2 2 4 5 11 9 10 11 12 15 17
4 1 2 5 3 2 4 4 2 1 1 2 2 4 2 3 4 6 5 3 5 5 3 1 3 5 2 4 3 2 3 2 1 1 1 5 4 5 7 10 11 13 15 16 17
2 2 2 7 2 3 5 5 3 2 3 1 3 1 3 4 3 5 2 3 3 5 1 1 4 2 6 3 4 4 3 1 2 3 5 2 4 5 5 8 10 12 13 13 14
2 3 2 5 3 6 5 4 4 3 1 4 2 4 3 2 3 3 3 4 5 3 6 2 2 6 3 8 3 6 4 5 1 2 3 3 2 3 4 6 7 8 10 11 13
2 2 4 2 6 3 3 3 3 5 8 6 5 5 3 3 4 3 4 4 6 2 3 1 4 1 4 3 8 5 4 3 2 2 1 2 1 6 6 6 6 7 9 10 11
3 1 3 2 4 3 3 5 5 6 6 5 4 5 3 4 4 3 5 2 7 3 4 2 0 3 1 3 1 7 4 2 1 3 4 3 2 4 7 7 6 6 8 9 12
4 3 5 7 2 6 5 3 4 5 4 5 3 3 4 4 6 4 3 2 4 3 4 1 2 5 6 3 3 3 2 3 4 4 3 4 1 2 5 6 7 6 5 6 7
5 2 1 3 6 6 5 2 3 3 3 6 4 6 3 3 3 4 3 4 4 7 4 4 3 2 2 1 5 2 2 1 4 3 5 4 2 5 6 5 6 4 5 6 10
4 4 4 3 2 4 6 3 4 3 4 3 5 2 4 4 3 3 2 1 1 5 4 4 2 3 3 7 7 5 3 4 3 3 3 2 4 5 6 5 5 6 5 6 9
3 1 4 5 2 3 2 3 3 5 5 5 4 4 3 2 3 1 1 1 3 3 2 2 3 3 3 4 5 2 2 2 2 2 1 2 2 4 5 10 7 5 5 6 9
Wind_Direction
7 4 359 346 327 303 288 285 277 262 258 261 262 263 254 246 237 166 234 225 175 160 110 119 83 117 89 97 95 127 69 214 239 175 258 144 237 128 327 116 225 192 173 57 121
7 5 358 350 340 321 295 275 270 265 259 255 248 250 235 197 193 236 236 215 193 146 113 145 152 137 75 104 75 100 138 219 214 207 256 323 211 187 158 152 279 259 131 98 147
2 358 354 350 343 322 299 274 260 264 254 248 240 231 210 176 270 244 209 197 168 138 123 113 126 120 104 124 163 158 198 221 259 237 287 289 306 283 233 254 222 216 201 164 176
356 352 352 347 344 330 301 270 252 243 242 236 226 204 183 214 225 314 286 172 155 119 109 113 114 109 128 168 156 163 238 220 279 45 14 283 333 292 206 231 193 244 116 164 185
351 349 350 347 344 341 321 280 245 230 230 214 194 182 162 168 254 326 113 137 112 135 145 140 137 138 163 169 128 175 249 200 252 278 250 330 240 245 274 277 296 325 120 190 208
348 345 346 346 345 344 333 293 238 219 215 190 176 154 191 230 330 103 109 100 137 123 153 148 173 174 122 150 169 191 228 264 265 239 226 200 211 126 58 34 42 32 16 22 16
344 344 343 345 345 344 336 288 238 209 201 182 170 170 138 238 43 128 122 123 161 145 153 196 151 127 134 137 251 177 314 317 277 186 211 164 184 260 337 60 50 40 34 35 34
341 342 340 341 343 346 342 297 217 195 179 174 160 146 239 337 138 134 122 80 95 149 137 157 144 105 101 123 26 24 49 349 308 137 355 168 209 65 24 65 46 37 31 27 26
338 338 338 338 341 344 345 57 141 151 153 151 124 156 265 135 144 182 141 142 125 50 56 95 62 98 54 97 15 3 229 206 323 19 106 70 196 44 34 59 48 37 30 24 17
335 334 334 335 336 339 343 110 121 102 93 186 55 39 258 198 142 139 68 123 120 110 52 54 55 92 51 110 221 192 215 231 255 348 42 14 272 59 39 53 45 35 29 26 21
332 330 330 330 329 329 332 91 57 26 249 187 195 229 75 64 121 90 150 100 92 63 142 2 130 212 188 195 132 128 173 245 232 230 23 225 78 26 42 48 39 34 27 22 18
330 327 325 325 322 318 155 173 194 167 298 215 254 288 246 206 102 117 136 120 132 159 125 46 243 195 149 166 178 149 231 260 277 237 154 167 79 63 57 59 51 39 30 21 12
328 325 322 319 318 114 197 195 118 107 108 259 187 183 208 152 126 192 137 135 125 133 178 165 206 94 136 145 162 205 188 212 222 47 245 134 142 134 74 61 50 42 34 28 20
326 324 320 317 268 180 207 148 122 123 71 216 216 202 122 143 73 12 157 134 69 180 158 230 264 161 180 196 155 250 208 197 151 111 222 194 271 132 113 63 46 32 29 23 17
324 325 328 208 214 153 111 128 130 66 33 133 148 166 96 125 142 4 20 57 152 168 126 246 160 146 163 214 162 219 129 164 151 171 85 253 162 113 196 28 28 27 25 23 21
323 327 336 119 256 5 342 116 60 57 249 92 51 73 90 20 48 70 43 35 47 143 349 247 298 254 215 134 178 138 84 49 54 107 252 213 179 118 28 13 25 25 24 20 16
320 320 308 176 161 331 104 71 63 157 340 7 29 37 81 12 46 49 47 32 47 122 360 322 249 307 55 124 50 93 70 326 320 160 233 272 176 56 81 57 44 25 23 20 18
315 316 355 96 311 158 84 64 184 93 51 330 37 71 81 5 37 39 91 69 27 24 79 37 311 2 332 36 204 173 161 171 236 205 236 22 222 105 93 72 52 48 34 25 20
319 6 52 326 332 107 84 72 100 194 278 357 79 102 62 7 98 88 62 94 44 15 100 37 267 328 25 334 12 150 170 193 165 83 109 151 109 138 94 57 38 27 24 22 18
96 74 10 327 4 75 77 99 103 28 334 220 111 337 132 351 82 81 114 342 104 44 317 152 304 75 296 339 22 59 12 221 14 261 247 246 153 113 21 18 26 22 23 14 12
46 68 310 346 78 53 99 92 115 45 5 25 117 95 64 105 58 61 93 24 4 21 53 30 98 302 8 17 334 348 23 17 96 48 252 270 133 53 45 26 24 27 33 17 11
84 72 334 2 59 40 67 48 37 1 11 40 76 65 75 46 66 91 113 49 336 352 71 29 104 226 83 319 74 64 61 63 149 275 11 269 200 37 55 49 44 35 24 13 11
87 334 335 11 113 98 87 73 61 26 31 31 63 39 36 80 98 61 84 121 24 51 148 145 159 63 166 268 100 62 4 8 96 89 227 145 245 65 29 18 21 21 9 359 357
77 62 356 44 20 103 117 71 99 37 62 53 72 66 75 58 23 114 94 76 359 5 29 125 105 160 190 169 119 138 84 50 104 117 225 230 227 301 347 352 344 345 346 338 334
31 87 196 31 25 72 78 72 99 70 67 33 59 60 79 99 69 82 53 6 45 356 45 81 138 92 185 250 91 96 62 87 175 199 162 246 194 232 275 267 281 287 322 347 345
90 109 30 69 37 53 16 45 101 106 32 29 95 81 44 93 79 150 109 52 43 360 58 1 113 90 328 54 103 95 13 88 90 126 89 143 284 212 280 287 299 302 333 347 334
344 39 100 1 36 71 14 122 95 114 26 47 123 104 95 101 66 28 171 88 57 62 85 74 98 71 279 136 139 35 285 26 125 76 79 227 254 319 318 325 315 307 321 318 321